Location: Beeston
(52.7000°N, 0.8167°E)
Time: 20:44:51
(UTC+00:00)

Cosmos 44 - Pass Details

Date: 15 May 2026
Orbit: 568 x 782 km, 65.1° (Epoch: 6 June)

Event Time Altitude Azimuth Distance (km) Brightness Sun altitude
Rises 22:30:45 0° 315° (NW) 3,279 8.0 -16.1°
Reaches altitude 10° 22:33:14 10° 311° (NW) 2,344 6.9 -16.2°
Maximum altitude 22:38:28 51° 237° (WSW) 968 3.9 -16.4°
Enters shadow 22:41:02 27° 175° (S) 1,420 4.3 -16.6°
